Regional Weather Roundup
Issued by NWS Newport/Morehead, NC

Current Version | Previous Version | Graphics & Text | Print | Product List | Glossary Off
Versions: 1 2 3 4 5 6 7 8 9 10 11 12 13 14 15 16 17 18 19 20 21 22 23 24 25 26 27 28 29 30 31 32 33 34 35 36 37 38 39 40 41 42 43 44 45 46 47 48 49 50

000
ASUS42 KMHX 262124
RWRMHX
WEATHER ROUNDUP FOR EASTERN NORTH CAROLINA
NATIONAL WEATHER SERVICE NEWPORT/MOREHEAD CITY NC
500 PM EDT THU MAR 26 2015

NOTE: "FAIR" INDICATES FEW OR NO CLOUDS BELOW 12,000 FEET
WITH NO SIGNIFICANT WEATHER AND/OR OBSTRUCTIONS TO VISIBILITY

NCZ015>017-031-032-045>047-102-103-262200-
NORTH COAST

CITY           SKY/WX    TMP DP  RH WIND       PRES   REMARKS
EDENTON        PTSUNNY   69  64  84 SW9       29.77F
ELIZABETH CITY LGT RAIN  66  60  81 W12G23    29.78R
KITTY HAWK     PTCLDY    67  61  79 S12G23    29.77F
MANTEO         MOSUNNY   64  58  82 S20       29.79F

$$

NCZ045>047-081-094-103-104-262200-
CENTRAL COAST

CITY           SKY/WX    TMP DP  RH WIND       PRES   REMARKS
FRISCO         PTSUNNY   68  61  78 S18G26    29.84F
SWANQUARTER      N/A     66 N/A N/A S10G18    29.77S

$$

NCZ095-097-098-100-101-262200-
SOUTHERN COAST

CITY           SKY/WX    TMP DP  RH WIND       PRES   REMARKS
BEAUFORT       MOSUNNY   66  60  81 S20G30    29.85F
CEDAR ISLAND     N/A     75 N/A N/A S21G29    29.85S
JACKSONVILLE   PTSUNNY   73  57  57 S13G20    29.83F
PINEY ISLAND   MOCLDY   N/A N/A N/A SW25G37   29.82F
WILMINGTON     PTSUNNY   72  60  66 SW16G23   29.86S


$$

NCZ011>013-027>030-043-044-078>080-089-090>093-098-262200-
COASTAL PLAIN

CITY           SKY/WX    TMP DP  RH WIND       PRES   REMARKS
AHOSKIE        CLOUDY    70  62  75 S6        29.75F
CLINTON        PTSUNNY   74  59  58 SW6G16    29.82S
ELIZABETHTOWN  PTSUNNY   75  57  52 S6        29.83S
GOLDSBORO      MOSUNNY   75  69  81 SW13G22   29.78F
GREENVILLE     MOSUNNY   73  55  53 SW18G25   29.81F
HAVELOCK       PTSUNNY   71  57  61 SW16G24   29.84F
KENANSVILLE    PTSUNNY   74  55  51 S5        29.83S
KINSTON        MOSUNNY   75  57  53 SW14G24   29.81F
NEW BERN       CLOUDY    76  54  46 SW10G20   29.82F
RICHLANDS      CLOUDY    75  54  46 SW12      29.83F
ROCKY MOUNT    PTSUNNY   73  56  54 SW14G23   29.77F
WASHINGTON     PTSUNNY   73  57  56 SW13G21   29.79S
WHITEVILLE     CLOUDY    74  60  63 S9        29.84S

$$

AMZ130-135-150-152-154-156-158-170-250-252-270-ANZ085-086-088-633-658-670-262200-
MARINE OBSERVATIONS

STATION/POSITION TIME  TEMP    WIND        PRES    WAVE   SWELL
                       AIR SEA DIR/SP/G            HT/PER HT/PER
                 (UTC) (F)     (DEG/KT/KT) (MB)    (FT/S) (FT/S)
CHESAPEAKE LIGHT 2100   56     190/ 28/ 29 1006.9
64 E VA BEACH    2050   61 53  190/ 23/ 27 1007.7    9/ 8
DUCK             2100   67 42  180/ 21/ 26 1006.8
2 E DUCK         2011      43                N/A     5/ 8
10 NE DUCK       NOT AVBL
OREGON INLET     2100   62 58  180/ 21/ 26 1009.0
HATTERAS CG      2100   69 58  190/  8/ 16 1010.6
CAPE LOOKOUT     2100   66     200/ 16/ 21 1010.5
BEAUFORT LAB     2100   64 57  210/ 15/ 20 1009.8
27 SE WRIGHTSVLE 2100   64 64  230/ 16/ 17 1013.7
5 SE WRIGHTSVLE  2100   60 56  190/ 14/ 16 1011.2
225 S CAPE HAT   2050   71 69  180/ 17/ 21 1016.1    7/ 7   2/14
41 SE CHARLESTON 2050   68 71  220/ 10/ 10 1012.0    5/ 8   5/ 8

$$



USA.gov is the U.S. government's official web portal to all federal, state and local government web resources and services.